Location: Moscow
(55.7500°N, 37.5830°E)
Time: 02:18:31
(UTC+03:00)

Explorer 7 - Pass Details

Date: 08 December 2021
Orbit: 483 x 674 km, 50.3° (Epoch: 17 January)

Event Time Altitude Azimuth Distance (km) Brightness Sun altitude
Rises 08:33:29 0° 267° (W) 2,760 9.9 -2.1°
Reaches altitude 10° 08:35:56 10° 258° (WSW) 1,827 9.1 -1.9°
Maximum altitude 08:39:39 33° 194° (SSW) 912 8.3 -1.5°
Drops below altitude 10° 08:43:11 10° 130° (SE) 1,731 11.7 -1.1°
Sets 08:45:28 0° 120° (ESE) 2,591 12.5 -0.8°
